This is the latest recevied weather packets stored in our database for station/object WC4PEM-13. If no packets are shown the sender has not sent any weather packets the latest 1 day(s).
| Time | Temp. | Humidity | Pressure | Rain* | Wind** | Luminosity | Snow |
|---|---|---|---|---|---|---|---|
| 1836274768 | 22.78° C | 93% | 1015.8 hPa | 0 mm | 1.34 m/s, 341° | - | - |
| 1836274468 | 22.78° C | 93% | 1015.9 hPa | 0 mm | 1.34 m/s, 342° | - | - |
| 1836274318 | 22.78° C | 93% | 1015.8 hPa | 0 mm | 1.34 m/s, 347° | - | - |
| 1836274168 | 22.78° C | 93% | 1016 hPa | 0 mm | 1.34 m/s, 22° | - | - |
| 1836273868 | 22.78° C | 93% | 1015.9 hPa | 0 mm | 1.34 m/s, 15° | - | - |
| 1778035648 | 20.56° C | 78% | 1016.8 hPa | 0 mm | 0.89 m/s, 83° | - | - |
| 1778035348 | 21.11° C | 78% | 1016.7 hPa | 0 mm | 0.89 m/s, 93° | - | - |
| 1778035048 | 21.11° C | 78% | 1016.6 hPa | 0 mm | 0.89 m/s, 93° | - | - |
| 1778034748 | 21.11° C | 77% | 1016.7 hPa | 0 mm | 1.34 m/s, 80° | - | - |
| 1778034448 | 21.11° C | 76% | 1016.5 hPa | 0 mm | 1.34 m/s, 88° | - | - |
| 1778034148 | 21.11° C | 76% | 1016.4 hPa | 0 mm | 0.89 m/s, 93° | - | - |
| 1778033848 | 21.11° C | 76% | 1016.5 hPa | 0 mm | 1.34 m/s, 83° | - | - |
| 1778033548 | 21.67° C | 76% | 1016.4 hPa | 0 mm | 1.34 m/s, 80° | - | - |
| 1778033248 | 21.67° C | 75% | 1016.3 hPa | 0 mm | 1.34 m/s, 85° | - | - |
| 1778032948 | 21.67° C | 74% | 1016.4 hPa | 0 mm | 0.89 m/s, 88° | - | - |
| 1778032648 | 21.67° C | 74% | 1016.2 hPa | 0 mm | 0.89 m/s, 87° | - | - |
| 1778032348 | 21.67° C | 73% | 1016.1 hPa | 0 mm | 1.34 m/s, 87° | - | - |
| 1778032048 | 22.22° C | 73% | 1016.1 hPa | 0 mm | 1.34 m/s, 93° | - | - |
| 1778031748 | 22.22° C | 72% | 1016 hPa | 0 mm | 1.34 m/s, 86° | - | - |
| 1778031448 | 22.22° C | 72% | 1015.9 hPa | 0 mm | 1.79 m/s, 80° | - | - |
| 1778031148 | 22.22° C | 71% | 1016 hPa | 0 mm | 1.34 m/s, 93° | - | - |
| 1778030848 | 22.22° C | 71% | 1015.9 hPa | 0 mm | 1.34 m/s, 93° | - | - |
| 1778030548 | 22.78° C | 71% | 1015.8 hPa | 0 mm | 1.34 m/s, 93° | - | - |
| 1778030248 | 22.78° C | 70% | 1015.7 hPa | 0 mm | 1.34 m/s, 83° | - | - |
| 1778029948 | 22.78° C | 70% | 1015.6 hPa | 0 mm | 1.79 m/s, 86° | - | - |
* Rain latest hour (hover to see other rain measurements)
** Current wind speed in m/s (hover to see current wind gust speed)